• In Schweiz
  • Länderverzeichnis
  • Für 7 Tage
  • Wassertemperatur
  • Satellitenkarten
  • Wetterkarte
  • Widgets
  • user-avatar
    Anmelden

    Stündliche Wetter Holhol

    Heute, 21 Juni, Donnerstag

    Zeit Temperatur Niederschläge Wind Luftdruck Luftfeuchtigkeit
    00:00 +36°C° 0 mm 2 m/S 711 mmHg 36%
    01:00 +36°C° 0 mm 2 m/S 711 mmHg 37%
    02:00 +35°C° 0 mm 2 m/S 711 mmHg 38%
    03:00 +34°C° 0 mm 1 m/S 711 mmHg 40%
    04:00 +33°C° 0 mm 1 m/S 711 mmHg 39%
    05:00 +34°C° 0 mm 2 m/S 711 mmHg 38%
    06:00 +34°C° 0 mm 2 m/S 711 mmHg 38%
    07:00 +36°C° 0 mm 3 m/S 712 mmHg 33%
    08:00 +37°C° 0 mm 4 m/S 712 mmHg 29%
    09:00 +39°C° 0 mm 5 m/S 712 mmHg 25%
    10:00 +41°C° 0 mm 5 m/S 712 mmHg 23%
    11:00 +42°C° 0 mm 6 m/S 712 mmHg 20%
    12:00 +44°C° 0 mm 6 m/S 712 mmHg 18%
    13:00 +43°C° 0 mm 5 m/S 711 mmHg 18%
    14:00 +43°C° 0 mm 5 m/S 711 mmHg 17%
    15:00 +44°C° 0 mm 4 m/S 711 mmHg 17%
    16:00 +43°C° 0 mm 4 m/S 710 mmHg 18%
    17:00 +42°C° 0 mm 4 m/S 710 mmHg 19%
    18:00 +42°C° 0 mm 5 m/S 710 mmHg 20%
    19:00 +41°C° 0 mm 4 m/S 710 mmHg 23%
    20:00 +39°C° 0 mm 3 m/S 710 mmHg 26%
    21:00 +38°C° 0 mm 3 m/S 710 mmHg 29%
    22:00 +37°C° 0 mm 3 m/S 710 mmHg 30%
    23:00 +37°C° 0 mm 3 m/S 710 mmHg 32%

    Morgen, 22 Juni, Freitag

    Zeit Temperatur Niederschläge Wind Luftdruck Luftfeuchtigkeit
    00:00 +37°C° 0 mm 3 m/S 711 mmHg 33%
    01:00 +36°C° 0 mm 3 m/S 710 mmHg 33%
    02:00 +36°C° 0 mm 2 m/S 710 mmHg 34%
    03:00 +36°C° 0 mm 2 m/S 710 mmHg 34%
    04:00 +35°C° 0 mm 3 m/S 710 mmHg 33%
    05:00 +35°C° 0 mm 3 m/S 710 mmHg 33%
    06:00 +35°C° 0 mm 4 m/S 710 mmHg 32%
    07:00 +36°C° 0 mm 5 m/S 710 mmHg 29%
    08:00 +39°C° 0 mm 6 m/S 711 mmHg 25%
    09:00 +40°C° 0 mm 7 m/S 711 mmHg 21%
    10:00 +41°C° 0 mm 7 m/S 711 mmHg 19%
    11:00 +44°C° 0 mm 7 m/S 711 mmHg 17%
    12:00 +45°C° 0 mm 6 m/S 711 mmHg 15%
    13:00 +45°C° 0 mm 6 m/S 710 mmHg 14%
    14:00 +46°C° 0 mm 5 m/S 710 mmHg 14%
    15:00 +45°C° 0 mm 4 m/S 709 mmHg 13%
    16:00 +45°C° 0 mm 5 m/S 709 mmHg 15%
    17:00 +43°C° 0 mm 5 m/S 708 mmHg 17%
    18:00 +42°C° 0 mm 5 m/S 708 mmHg 19%
    19:00 +41°C° 0 mm 4 m/S 708 mmHg 22%
    20:00 +39°C° 0 mm 3 m/S 709 mmHg 26%
    21:00 +38°C° 0 mm 2 m/S 709 mmHg 30%
    22:00 +38°C° 0 mm 3 m/S 709 mmHg 33%
    23:00 +37°C° 0 mm 3 m/S 709 mmHg 36%

    übermorgen, 23 Juni, Samstag

    Zeit Temperatur Niederschläge Wind Luftdruck Luftfeuchtigkeit
    00:00 +36°C° 0 mm 3 m/S 709 mmHg 39%
    01:00 +36°C° 0 mm 3 m/S 709 mmHg 38%
    02:00 +36°C° 0 mm 3 m/S 709 mmHg 37%
    03:00 +36°C° 0 mm 2 m/S 708 mmHg 37%
    04:00 +35°C° 0 mm 2 m/S 709 mmHg 35%
    05:00 +35°C° 0 mm 3 m/S 709 mmHg 34%
    06:00 +35°C° 0 mm 3 m/S 709 mmHg 33%
    07:00 +36°C° 0 mm 4 m/S 710 mmHg 30%
    08:00 +37°C° 0 mm 5 m/S 710 mmHg 28%
    09:00 +39°C° 0 mm 6 m/S 711 mmHg 26%
    10:00 +40°C° 0 mm 6 m/S 711 mmHg 23%
    11:00 +41°C° 0 mm 6 m/S 711 mmHg 21%
    12:00 +42°C° 0 mm 6 m/S 711 mmHg 19%
    13:00 +42°C° 0 mm 5 m/S 710 mmHg 19%
    14:00 +42°C° 0 mm 5 m/S 709 mmHg 18%
    15:00 +43°C° 0 mm 4 m/S 709 mmHg 18%
    16:00 +42°C° 0 mm 4 m/S 708 mmHg 21%
    17:00 +40°C° 0 mm 3 m/S 708 mmHg 23%
    18:00 +40°C° 0 mm 2 m/S 708 mmHg 26%
    19:00 +38°C° 0 mm 2 m/S 708 mmHg 30%
    20:00 +37°C° 0 mm 3 m/S 709 mmHg 35%
    21:00 +36°C° 0 mm 3 m/S 709 mmHg 39%
    22:00 +36°C° 0 mm 2 m/S 709 mmHg 39%
    23:00 +36°C° 0 mm 2 m/S 709 mmHg 39%

    24 Juni, Sonntag

    Zeit Temperatur Niederschläge Wind Luftdruck Luftfeuchtigkeit
    00:00 +35°C° 0 mm 1 m/S 709 mmHg 39%
    01:00 +34°C° 0 mm 1 m/S 709 mmHg 38%
    02:00 +34°C° 0 mm 1 m/S 708 mmHg 38%
    03:00 +35°C° 0 mm 2 m/S 708 mmHg 37%
    04:00 +34°C° 0 mm 2 m/S 708 mmHg 37%
    05:00 +34°C° 0 mm 2 m/S 709 mmHg 37%
    06:00 +32°C° 0 mm 2 m/S 709 mmHg 37%
    07:00 +35°C° 0 mm 3 m/S 710 mmHg 34%
    08:00 +36°C° 0 mm 3 m/S 710 mmHg 30%
    09:00 +38°C° 0 mm 4 m/S 711 mmHg 26%
    10:00 +40°C° 0 mm 4 m/S 711 mmHg 25%
    11:00 +40°C° 0 mm 4 m/S 711 mmHg 23%
    12:00 +41°C° 0 mm 4 m/S 711 mmHg 21%
    13:00 +42°C° 0 mm 3 m/S 710 mmHg 19%
    14:00 +43°C° 0 mm 3 m/S 709 mmHg 18%
    15:00 +42°C° 0 mm 2 m/S 709 mmHg 17%
    16:00 +42°C° 0 mm 4 m/S 709 mmHg 19%
    17:00 +42°C° 0 mm 5 m/S 709 mmHg 22%
    18:00 +41°C° 0 mm 7 m/S 709 mmHg 24%
    19:00 +40°C° 0 mm 6 m/S 709 mmHg 27%
    20:00 +39°C° 0 mm 5 m/S 710 mmHg 30%
    21:00 +37°C° 0 mm 4 m/S 710 mmHg 32%
    22:00 +36°C° 0 mm 3 m/S 710 mmHg 33%
    23:00 +36°C° 0 mm 3 m/S 710 mmHg 33%

    25 Juni, Montag

    Zeit Temperatur Niederschläge Wind Luftdruck Luftfeuchtigkeit
    00:00 +36°C° 0 mm 2 m/S 710 mmHg 34%
    01:00 +36°C° 0 mm 3 m/S 710 mmHg 36%
    02:00 +35°C° 0 mm 3 m/S 710 mmHg 38%
    03:00 +35°C° 0 mm 4 m/S 709 mmHg 41%
    04:00 +34°C° 0,2 mm 4 m/S 710 mmHg 41%
    05:00 +34°C° 0,2 mm 3 m/S 710 mmHg 42%
    06:00 +34°C° 0,2 mm 3 m/S 711 mmHg 43%
    07:00 +34°C° 0,1 mm 4 m/S 711 mmHg 40%
    08:00 +35°C° 0,1 mm 6 m/S 711 mmHg 37%
    09:00 +35°C° 0,1 mm 7 m/S 712 mmHg 34%
    10:00 +36°C° 0 mm 6 m/S 712 mmHg 30%
    11:00 +39°C° 0 mm 6 m/S 711 mmHg 27%
    12:00 +40°C° 0 mm 6 m/S 711 mmHg 23%
    13:00 +41°C° 0 mm 5 m/S 710 mmHg 22%
    14:00 +41°C° 0 mm 4 m/S 710 mmHg 20%
    15:00 +42°C° 0 mm 3 m/S 709 mmHg 19%
    16:00 +42°C° 0 mm 4 m/S 709 mmHg 20%
    17:00 +41°C° 0 mm 4 m/S 709 mmHg 20%
    18:00 +41°C° 0 mm 4 m/S 709 mmHg 21%
    19:00 +40°C° 0 mm 4 m/S 709 mmHg 24%
    20:00 +38°C° 0 mm 4 m/S 710 mmHg 27%
    21:00 +37°C° 0 mm 5 m/S 710 mmHg 30%
    22:00 +37°C° 0 mm 4 m/S 710 mmHg 31%
    23:00 +36°C° 0 mm 3 m/S 710 mmHg 32%

    26 Juni, Dienstag

    Zeit Temperatur Niederschläge Wind Luftdruck Luftfeuchtigkeit
    00:00 +36°C° 0 mm 2 m/S 710 mmHg 33%
    01:00 +35°C° 0 mm 2 m/S 710 mmHg 34%
    02:00 +35°C° 0 mm 2 m/S 709 mmHg 34%
    03:00 +35°C° 0 mm 2 m/S 709 mmHg 35%
    04:00 +34°C° 0 mm 2 m/S 710 mmHg 36%
    05:00 +34°C° 0 mm 2 m/S 710 mmHg 36%
    06:00 +34°C° 0 mm 2 m/S 710 mmHg 37%
    07:00 +35°C° 0 mm 3 m/S 711 mmHg 34%
    08:00 +36°C° 0 mm 4 m/S 711 mmHg 31%
    09:00 +37°C° 0 mm 5 m/S 712 mmHg 28%
    10:00 +39°C° 0 mm 5 m/S 712 mmHg 26%
    11:00 +40°C° 0 mm 5 m/S 711 mmHg 24%
    12:00 +41°C° 0 mm 4 m/S 711 mmHg 22%
    13:00 +42°C° 0 mm 4 m/S 710 mmHg 21%
    14:00 +42°C° 0 mm 4 m/S 709 mmHg 20%
    15:00 +42°C° 0 mm 3 m/S 709 mmHg 19%
    16:00 +42°C° 0 mm 3 m/S 709 mmHg 21%
    17:00 +40°C° 0 mm 3 m/S 709 mmHg 22%
    18:00 +40°C° 0 mm 3 m/S 709 mmHg 23%
    19:00 +39°C° 0 mm 3 m/S 709 mmHg 25%
    20:00 +38°C° 0 mm 3 m/S 709 mmHg 27%
    21:00 +38°C° 0 mm 3 m/S 710 mmHg 28%
    22:00 +37°C° 0 mm 2 m/S 710 mmHg 29%
    23:00 +37°C° 0 mm 2 m/S 710 mmHg 30%
    Mehr zeigen